Here is the Quick Look data you requested

The Data originates at the National Weather Service, and is made available here by the UAlbany Department of Atmospheric and Environmental Sciences

Surface Observations

KNGU 151959Z 22007KT 10SM CLR 36/22 A2993 RMK AO2 SLP134 T03560217
KNGU 151959Z 22007KT 10SM CLR 36/22 A2993 RMK AO2 SLP134 T03560217=
KNGU 152059Z 20006KT 10SM CLR 36/21 A2992 RMK AO2 SLP130 T03560206 56018
KNGU 152059Z 20006KT 10SM CLR 36/21 A2992 RMK AO2 SLP130 T03560206 56018=
KNGU 152159Z 22010KT 10SM CLR 35/21 A2990 RMK AO2 SLP125 T03500211
KNGU 152159Z 22010KT 10SM CLR 35/21 A2990 RMK AO2 SLP125 T03500211=
KNGU 152259Z 22006KT 9SM CLR 34/22 A2990 RMK AO2 SLP124 T03390222
KNGU 152259Z 22006KT 9SM CLR 34/22 A2990 RMK AO2 SLP124 T03390222=
KNGU 152359Z 20006KT 9SM SCT200 33/23 A2991 RMK AO2 SLP129 T03280228 10361
 20328 55001
KNGU 152359Z 20006KT 9SM SCT200 33/23 A2991 RMK AO2 SLP129 T03280228 10361
 20328 55001=
KNGU 160059Z 19005KT 10SM SCT200 32/23 A2992 RMK AO2 SLP131 T03170233
KNGU 160059Z 19005KT 10SM SCT200 32/23 A2992 RMK AO2 SLP131 T03170233=
KNGU 160159Z 19010G19KT 9SM SCT200 31/25 A2991 RMK AO2 SLP129 T03110250
KNGU 160159Z 19010G19KT 9SM SCT200 31/25 A2991 RMK AO2 SLP129 T03110250=
KNGU 160259Z 20009G17KT 9SM FEW200 31/24 A2992 RMK AO2 SLP131 T03060244 52002
KNGU 160259Z 20009G17KT 9SM FEW200 31/24 A2992 RMK AO2 SLP131 T03060244 52002=
KNGU 160359Z 21008KT 9SM CLR 29/24 A2992 RMK AO2 SLP130 T02940239
KNGU 160359Z 21008KT 9SM CLR 29/24 A2992 RMK AO2 SLP130 T02940239=
KNGU 160459Z 21009KT 9SM CLR 29/24 A2991 RMK AO2 SLP127 T02890244 403610261
KNGU 160459Z 21009KT 9SM CLR 29/24 A2991 RMK AO2 SLP127 T02890244 403610261=
KNGU 160559Z 22010KT 8SM FEW200 28/24 A2990 RMK AO2 SLP125 T02830239 10322
 20283 58006
KNGU 160559Z 22010KT 8SM FEW200 28/24 A2990 RMK AO2 SLP125 T02830239 10322
 20283 58006=
KNGU 160659Z 22010KT 9SM SCT120 28/23 A2989 RMK AO2 SLP122 T02780233
KNGU 160659Z 22010KT 9SM SCT120 28/23 A2989 RMK AO2 SLP122 T02780233=
KNGU 160659Z 22010KT 9SM SCT250 28/23 A2989 RMK AO2 SLP122 T02780233
KNGU 160659Z 22010KT 9SM SCT250 28/23 A2989 RMK AO2 SLP122 T02780233=
KNGU 160659Z 22010KT 9SM SCT120 28/23 A2989 RMK AO2 SLP122 T02780233=
KNGU 160659Z 22010KT 9SM SCT120 28/23 A2989 RMK AO2 SLP122 T02780233
KNGU 160759Z 21010KT 8SM SCT120 27/23 A2990 RMK AO2 SLP125 T02670228
KNGU 160759Z 21010KT 8SM SCT120 27/23 A2990 RMK AO2 SLP125 T02670228=
KNGU 160859Z 22009KT 9SM FEW040 BKN120 26/22 A2992 RMK AO2 SLP132 T02610222
 53007
KNGU 160859Z 22009KT 9SM FEW040 BKN120 26/22 A2992 RMK AO2 SLP132 T02610222
 53007=
KNGU 160959Z 21010KT 9SM SCT120 SCT250 26/22 A2993 RMK AO2 SLP134 T02610222
KNGU 160959Z 21010KT 9SM SCT120 SCT250 26/22 A2993 RMK AO2 SLP134 T02610222=
KNGU 161059Z 20009G17KT 7SM SCT120 SCT250 26/23 A2993 RMK AO2 SLP134 T02610228
KNGU 161059Z 20009G17KT 7SM SCT120 SCT250 26/23 A2993 RMK AO2 SLP134 T02610228=
KNGU 161159Z 21011KT 7SM SCT120 SCT250 27/23 A2994 RMK AO2 SLP138 T02720228
 10283 20256 53006
KNGU 161159Z 21011KT 7SM SCT120 SCT250 27/23 A2994 RMK AO2 SLP138 T02720228
 10283 20256 53006=
KNGU 161259Z 22010KT 7SM BKN200 28/23 A2994 RMK AO2 SLP139 T02830233
KNGU 161259Z 22010KT 7SM BKN200 28/23 A2994 RMK AO2 SLP139 T02830233=
KNGU 161359Z 20012KT 7SM BKN200 29/24 A2994 RMK AO2 SLP137 T02940239
KNGU 161359Z 20012KT 7SM BKN200 29/24 A2994 RMK AO2 SLP137 T02940239=
KNGU 161459Z 22007KT 7SM BKN200 32/24 A2993 RMK AO2 SLP136 T03170244 58002
KNGU 161459Z 22007KT 7SM BKN200 32/24 A2993 RMK AO2 SLP136 T03170244 58002=
KNGU 161559Z 21009KT 7SM BKN200 33/25 A2993 RMK AO2 SLP135 T03280250
KNGU 161559Z 21009KT 7SM BKN200 33/25 A2993 RMK AO2 SLP135 T03280250=
KNGU 161659Z 22008G19KT 7SM BKN200 34/26 A2992 RMK AO2 SLP130 T03440256
KNGU 161659Z 22008G19KT 7SM BKN200 34/26 A2992 RMK AO2 SLP130 T03440256=
KNGU 161759Z 21013G22KT 7SM FEW040 BKN200 34/26 A2991 RMK AO2 SLP127 T03440256
 10350 20272 58010
KNGU 161759Z 21013G22KT 7SM FEW040 BKN200 34/26 A2991 RMK AO2 SLP127 T03440256
 10350 20272 58010=
KNGU 161859Z 23013KT 7SM FEW040 BKN200 35/25 A2989 RMK AO2 SLP122 T03500250
KNGU 161859Z 23013KT 7SM FEW040 BKN200 35/25 A2989 RMK AO2 SLP122 T03500250=
KNGU 161959Z 21012G21KT 7SM FEW040 SCT250 35/24 A2987 RMK AO2 SLP115 T03500244
KNGU 161959Z 21012G21KT 7SM FEW040 SCT250 35/24 A2987 RMK AO2 SLP115 T03500244=

Decoded Surface Observations


The weather observed at NORFOLK NAS/CHAM, VA (KNGU) at 03:59 PM EDT was:
  The skies were clear.
  Temperature: 96F ( 36C)  Dewpoint:  71F ( 22C)  Relative Humidity:  45%
  Winds from the SW (220 degs) at  8 mph.
  Pressure: 1013.4 millibars.  Altimeter:29.93 inches of mercury.
  The prevailing visibility was 10 miles.

The weather observed at NORFOLK NAS/CHAM, VA (KNGU) at 03:59 PM EDT was:
  The skies were clear.
  Temperature: 97F ( 36C)  Dewpoint:  72F ( 22C)  Relative Humidity:  44%
  Winds from the SW (220 degs) at  8 mph.
  Pressure: 1013.4 millibars.  Altimeter:29.93 inches of mercury.
  The prevailing visibility was 10 miles.

The weather observed at NORFOLK NAS/CHAM, VA (KNGU) at 04:59 PM EDT was:
  The skies were clear.
  Temperature: 96F ( 36C)  Dewpoint:  69F ( 21C)  Relative Humidity:  42%
  Winds from the SSW(200 degs) at  7 mph.
  Pressure: 1013.0 millibars.  Altimeter:29.92 inches of mercury.
  The prevailing visibility was 10 miles.

The weather observed at NORFOLK NAS/CHAM, VA (KNGU) at 04:59 PM EDT was:
  The skies were clear.
  Temperature: 96F ( 36C)  Dewpoint:  69F ( 21C)  Relative Humidity:  42%
  Winds from the SSW(200 degs) at  7 mph.
  Pressure: 1013.0 millibars.  Altimeter:29.92 inches of mercury.
  The prevailing visibility was 10 miles.

The weather observed at NORFOLK NAS/CHAM, VA (KNGU) at 05:59 PM EDT was:
  The skies were clear.
  Temperature: 95F ( 35C)  Dewpoint:  70F ( 21C)  Relative Humidity:  44%
  Winds from the SW (220 degs) at 12 mph.
  Pressure: 1012.5 millibars.  Altimeter:29.90 inches of mercury.
  The prevailing visibility was 10 miles.

The weather observed at NORFOLK NAS/CHAM, VA (KNGU) at 05:59 PM EDT was:
  The skies were clear.
  Temperature: 95F ( 35C)  Dewpoint:  70F ( 21C)  Relative Humidity:  44%
  Winds from the SW (220 degs) at 12 mph.
  Pressure: 1012.5 millibars.  Altimeter:29.90 inches of mercury.
  The prevailing visibility was 10 miles.

The weather observed at NORFOLK NAS/CHAM, VA (KNGU) at 06:59 PM EDT was:
  The skies were clear.
  Temperature: 93F ( 34C)  Dewpoint:  72F ( 22C)  Relative Humidity:  51%
  Winds from the SW (220 degs) at  7 mph.
  Pressure: 1012.4 millibars.  Altimeter:29.90 inches of mercury.
  The prevailing visibility was 9 miles.

The weather observed at NORFOLK NAS/CHAM, VA (KNGU) at 06:59 PM EDT was:
  The skies were clear.
  Temperature: 93F ( 34C)  Dewpoint:  72F ( 22C)  Relative Humidity:  50%
  Winds from the SW (220 degs) at  7 mph.
  Pressure: 1012.4 millibars.  Altimeter:29.90 inches of mercury.
  The prevailing visibility was 9 miles.

The weather observed at NORFOLK NAS/CHAM, VA (KNGU) at 07:59 PM EDT was:
  The skies were partly cloudy.
  Temperature: 91F ( 33C)  Dewpoint:  73F ( 23C)  Relative Humidity:  56%
  Winds from the SSW(200 degs) at  7 mph.
  Pressure: 1012.9 millibars.  Altimeter:29.91 inches of mercury.
  The prevailing visibility was 9 miles.
  The maximum temperature in the past 6 hours was  97F.
  The minimum temperature in the past 6 hours was  91F.

The weather observed at NORFOLK NAS/CHAM, VA (KNGU) at 07:59 PM EDT was:
  The skies were partly cloudy.
  Temperature: 91F ( 33C)  Dewpoint:  73F ( 23C)  Relative Humidity:  56%
  Winds from the SSW(200 degs) at  7 mph.
  Pressure: 1012.9 millibars.  Altimeter:29.91 inches of mercury.
  The prevailing visibility was 9 miles.
  The maximum temperature in the past 6 hours was  97F.
  The minimum temperature in the past 6 hours was  91F.

The weather observed at NORFOLK NAS/CHAM, VA (KNGU) at 08:59 PM EDT was:
  The skies were partly cloudy.
  Temperature: 89F ( 32C)  Dewpoint:  74F ( 23C)  Relative Humidity:  61%
  Winds from the S  (190 degs) at  6 mph.
  Pressure: 1013.1 millibars.  Altimeter:29.92 inches of mercury.
  The prevailing visibility was 10 miles.

The weather observed at NORFOLK NAS/CHAM, VA (KNGU) at 08:59 PM EDT was:
  The skies were partly cloudy.
  Temperature: 90F ( 32C)  Dewpoint:  73F ( 23C)  Relative Humidity:  59%
  Winds from the S  (190 degs) at  6 mph.
  Pressure: 1013.1 millibars.  Altimeter:29.92 inches of mercury.
  The prevailing visibility was 10 miles.

The weather observed at NORFOLK NAS/CHAM, VA (KNGU) at 09:59 PM EDT was:
  The skies were partly cloudy.
  Temperature: 88F ( 31C)  Dewpoint:  77F ( 25C)  Relative Humidity:  70%
  Winds from the S  (190 degs) at 12 mph.
  Pressure: 1012.9 millibars.  Altimeter:29.91 inches of mercury.
  The prevailing visibility was 9 miles.

The weather observed at NORFOLK NAS/CHAM, VA (KNGU) at 09:59 PM EDT was:
  The skies were partly cloudy.
  Temperature: 88F ( 31C)  Dewpoint:  77F ( 25C)  Relative Humidity:  70%
  Winds from the S  (190 degs) at 12 mph.
  Pressure: 1012.9 millibars.  Altimeter:29.91 inches of mercury.
  The prevailing visibility was 9 miles.

The weather observed at NORFOLK NAS/CHAM, VA (KNGU) at 10:59 PM EDT was:
  The skies were mostly clear.
  Temperature: 87F ( 31C)  Dewpoint:  76F ( 24C)  Relative Humidity:  70%
  Winds from the SSW(200 degs) at 10 mph.
  Pressure: 1013.1 millibars.  Altimeter:29.92 inches of mercury.
  The prevailing visibility was 9 miles.

The weather observed at NORFOLK NAS/CHAM, VA (KNGU) at 10:59 PM EDT was:
  The skies were mostly clear.
  Temperature: 87F ( 31C)  Dewpoint:  76F ( 24C)  Relative Humidity:  70%
  Winds from the SSW(200 degs) at 10 mph.
  Pressure: 1013.1 millibars.  Altimeter:29.92 inches of mercury.
  The prevailing visibility was 9 miles.

The weather observed at NORFOLK NAS/CHAM, VA (KNGU) at 11:59 PM EDT was:
  The skies were clear.
  Temperature: 85F ( 29C)  Dewpoint:  75F ( 24C)  Relative Humidity:  72%
  Winds from the SW (210 degs) at  9 mph.
  Pressure: 1013.0 millibars.  Altimeter:29.92 inches of mercury.
  The prevailing visibility was 9 miles.

The weather observed at NORFOLK NAS/CHAM, VA (KNGU) at 11:59 PM EDT was:
  The skies were clear.
  Temperature: 84F ( 29C)  Dewpoint:  75F ( 24C)  Relative Humidity:  74%
  Winds from the SW (210 degs) at  9 mph.
  Pressure: 1013.0 millibars.  Altimeter:29.92 inches of mercury.
  The prevailing visibility was 9 miles.

The weather observed at NORFOLK NAS/CHAM, VA (KNGU) at 12:59 AM EDT was:
  The skies were clear.
  Temperature: 84F ( 29C)  Dewpoint:  76F ( 24C)  Relative Humidity:  77%
  Winds from the SW (210 degs) at 10 mph.
  Pressure: 1012.7 millibars.  Altimeter:29.91 inches of mercury.
  The prevailing visibility was 9 miles.
  The maximum temperature in the past 24 hours was  97F.
  The minimum temperature in the past 24 hours was  79F.

The weather observed at NORFOLK NAS/CHAM, VA (KNGU) at 12:59 AM EDT was:
  The skies were clear.
  Temperature: 84F ( 29C)  Dewpoint:  76F ( 24C)  Relative Humidity:  77%
  Winds from the SW (210 degs) at 10 mph.
  Pressure: 1012.7 millibars.  Altimeter:29.91 inches of mercury.
  The prevailing visibility was 9 miles.

The weather observed at NORFOLK NAS/CHAM, VA (KNGU) at 01:59 AM EDT was:
  The skies were mostly clear.
  Temperature: 83F ( 28C)  Dewpoint:  75F ( 24C)  Relative Humidity:  77%
  Winds from the SW (220 degs) at 12 mph.
  Pressure: 1012.5 millibars.  Altimeter:29.90 inches of mercury.
  The prevailing visibility was 8 miles.
  The maximum temperature in the past 6 hours was  90F.
  The minimum temperature in the past 6 hours was  83F.

The weather observed at NORFOLK NAS/CHAM, VA (KNGU) at 01:59 AM EDT was:
  The skies were mostly clear.
  Temperature: 83F ( 28C)  Dewpoint:  75F ( 24C)  Relative Humidity:  77%
  Winds from the SW (220 degs) at 12 mph.
  Pressure: 1012.5 millibars.  Altimeter:29.90 inches of mercury.
  The prevailing visibility was 8 miles.
  The maximum temperature in the past 6 hours was  90F.
  The minimum temperature in the past 6 hours was  83F.

The weather observed at NORFOLK NAS/CHAM, VA (KNGU) at 02:59 AM EDT was:
  The skies were partly cloudy.
  Temperature: 82F ( 28C)  Dewpoint:  74F ( 23C)  Relative Humidity:  77%
  Winds from the SW (220 degs) at 12 mph.
  Pressure: 1012.2 millibars.  Altimeter:29.89 inches of mercury.
  The prevailing visibility was 9 miles.

The weather observed at NORFOLK NAS/CHAM, VA (KNGU) at 02:59 AM EDT was:
  The skies were partly cloudy.
  Temperature: 82F ( 28C)  Dewpoint:  73F ( 23C)  Relative Humidity:  74%
  Winds from the SW (220 degs) at 12 mph.
  Pressure: 1012.2 millibars.  Altimeter:29.89 inches of mercury.
  The prevailing visibility was 9 miles.

The weather observed at NORFOLK NAS/CHAM, VA (KNGU) at 02:59 AM EDT was:
  The skies were partly cloudy.
  Temperature: 82F ( 28C)  Dewpoint:  74F ( 23C)  Relative Humidity:  77%
  Winds from the SW (220 degs) at 12 mph.
  Pressure: 1012.2 millibars.  Altimeter:29.89 inches of mercury.
  The prevailing visibility was 9 miles.

The weather observed at NORFOLK NAS/CHAM, VA (KNGU) at 02:59 AM EDT was:
  The skies were partly cloudy.
  Temperature: 82F ( 28C)  Dewpoint:  73F ( 23C)  Relative Humidity:  74%
  Winds from the SW (220 degs) at 12 mph.
  Pressure: 1012.2 millibars.  Altimeter:29.89 inches of mercury.
  The prevailing visibility was 9 miles.

The weather observed at NORFOLK NAS/CHAM, VA (KNGU) at 02:59 AM EDT was:
  The skies were partly cloudy.
  Temperature: 82F ( 28C)  Dewpoint:  73F ( 23C)  Relative Humidity:  74%
  Winds from the SW (220 degs) at 12 mph.
  Pressure: 1012.2 millibars.  Altimeter:29.89 inches of mercury.
  The prevailing visibility was 9 miles.

The weather observed at NORFOLK NAS/CHAM, VA (KNGU) at 02:59 AM EDT was:
  The skies were partly cloudy.
  Temperature: 82F ( 28C)  Dewpoint:  74F ( 23C)  Relative Humidity:  77%
  Winds from the SW (220 degs) at 12 mph.
  Pressure: 1012.2 millibars.  Altimeter:29.89 inches of mercury.
  The prevailing visibility was 9 miles.

The weather observed at NORFOLK NAS/CHAM, VA (KNGU) at 03:59 AM EDT was:
  The skies were partly cloudy.
  Temperature: 80F ( 27C)  Dewpoint:  73F ( 23C)  Relative Humidity:  79%
  Winds from the SW (210 degs) at 12 mph.
  Pressure: 1012.5 millibars.  Altimeter:29.90 inches of mercury.
  The prevailing visibility was 8 miles.

The weather observed at NORFOLK NAS/CHAM, VA (KNGU) at 03:59 AM EDT was:
  The skies were partly cloudy.
  Temperature: 81F ( 27C)  Dewpoint:  73F ( 23C)  Relative Humidity:  79%
  Winds from the SW (210 degs) at 12 mph.
  Pressure: 1012.5 millibars.  Altimeter:29.90 inches of mercury.
  The prevailing visibility was 8 miles.

The weather observed at NORFOLK NAS/CHAM, VA (KNGU) at 04:59 AM EDT was:
  The skies were mostly cloudy.
  Temperature: 79F ( 26C)  Dewpoint:  72F ( 22C)  Relative Humidity:  79%
  Winds from the SW (220 degs) at 10 mph.
  Pressure: 1013.2 millibars.  Altimeter:29.92 inches of mercury.
  The prevailing visibility was 9 miles.

The weather observed at NORFOLK NAS/CHAM, VA (KNGU) at 04:59 AM EDT was:
  The skies were mostly cloudy.
  Temperature: 79F ( 26C)  Dewpoint:  72F ( 22C)  Relative Humidity:  79%
  Winds from the SW (220 degs) at 10 mph.
  Pressure: 1013.2 millibars.  Altimeter:29.92 inches of mercury.
  The prevailing visibility was 9 miles.

The weather observed at NORFOLK NAS/CHAM, VA (KNGU) at 05:59 AM EDT was:
  The skies were partly cloudy.
  Temperature: 79F ( 26C)  Dewpoint:  72F ( 22C)  Relative Humidity:  79%
  Winds from the SW (210 degs) at 12 mph.
  Pressure: 1013.4 millibars.  Altimeter:29.93 inches of mercury.
  The prevailing visibility was 9 miles.

The weather observed at NORFOLK NAS/CHAM, VA (KNGU) at 05:59 AM EDT was:
  The skies were partly cloudy.
  Temperature: 79F ( 26C)  Dewpoint:  72F ( 22C)  Relative Humidity:  79%
  Winds from the SW (210 degs) at 12 mph.
  Pressure: 1013.4 millibars.  Altimeter:29.93 inches of mercury.
  The prevailing visibility was 9 miles.

The weather observed at NORFOLK NAS/CHAM, VA (KNGU) at 06:59 AM EDT was:
  The skies were partly cloudy.
  Temperature: 79F ( 26C)  Dewpoint:  73F ( 23C)  Relative Humidity:  82%
  Winds from the SSW(200 degs) at 10 mph.
  Pressure: 1013.4 millibars.  Altimeter:29.93 inches of mercury.
  The prevailing visibility was 7 miles.

The weather observed at NORFOLK NAS/CHAM, VA (KNGU) at 06:59 AM EDT was:
  The skies were partly cloudy.
  Temperature: 79F ( 26C)  Dewpoint:  73F ( 23C)  Relative Humidity:  84%
  Winds from the SSW(200 degs) at 10 mph.
  Pressure: 1013.4 millibars.  Altimeter:29.93 inches of mercury.
  The prevailing visibility was 7 miles.

The weather observed at NORFOLK NAS/CHAM, VA (KNGU) at 07:59 AM EDT was:
  The skies were partly cloudy.
  Temperature: 81F ( 27C)  Dewpoint:  73F ( 23C)  Relative Humidity:  77%
  Winds from the SW (210 degs) at 13 mph.
  Pressure: 1013.8 millibars.  Altimeter:29.94 inches of mercury.
  The prevailing visibility was 7 miles.
  The maximum temperature in the past 6 hours was  83F.
  The minimum temperature in the past 6 hours was  78F.

The weather observed at NORFOLK NAS/CHAM, VA (KNGU) at 07:59 AM EDT was:
  The skies were partly cloudy.
  Temperature: 81F ( 27C)  Dewpoint:  73F ( 23C)  Relative Humidity:  77%
  Winds from the SW (210 degs) at 13 mph.
  Pressure: 1013.8 millibars.  Altimeter:29.94 inches of mercury.
  The prevailing visibility was 7 miles.
  The maximum temperature in the past 6 hours was  83F.
  The minimum temperature in the past 6 hours was  78F.

The weather observed at NORFOLK NAS/CHAM, VA (KNGU) at 08:59 AM EDT was:
  The skies were mostly cloudy.
  Temperature: 83F ( 28C)  Dewpoint:  74F ( 23C)  Relative Humidity:  74%
  Winds from the SW (220 degs) at 12 mph.
  Pressure: 1013.9 millibars.  Altimeter:29.94 inches of mercury.
  The prevailing visibility was 7 miles.

The weather observed at NORFOLK NAS/CHAM, VA (KNGU) at 08:59 AM EDT was:
  The skies were mostly cloudy.
  Temperature: 82F ( 28C)  Dewpoint:  73F ( 23C)  Relative Humidity:  74%
  Winds from the SW (220 degs) at 12 mph.
  Pressure: 1013.9 millibars.  Altimeter:29.94 inches of mercury.
  The prevailing visibility was 7 miles.

The weather observed at NORFOLK NAS/CHAM, VA (KNGU) at 09:59 AM EDT was:
  The skies were mostly cloudy.
  Temperature: 85F ( 29C)  Dewpoint:  75F ( 24C)  Relative Humidity:  72%
  Winds from the SSW(200 degs) at 14 mph.
  Pressure: 1013.7 millibars.  Altimeter:29.94 inches of mercury.
  The prevailing visibility was 7 miles.

The weather observed at NORFOLK NAS/CHAM, VA (KNGU) at 09:59 AM EDT was:
  The skies were mostly cloudy.
  Temperature: 84F ( 29C)  Dewpoint:  75F ( 24C)  Relative Humidity:  74%
  Winds from the SSW(200 degs) at 14 mph.
  Pressure: 1013.7 millibars.  Altimeter:29.94 inches of mercury.
  The prevailing visibility was 7 miles.

The weather observed at NORFOLK NAS/CHAM, VA (KNGU) at 10:59 AM EDT was:
  The skies were mostly cloudy.
  Temperature: 89F ( 32C)  Dewpoint:  76F ( 24C)  Relative Humidity:  65%
  Winds from the SW (220 degs) at  8 mph.
  Pressure: 1013.6 millibars.  Altimeter:29.93 inches of mercury.
  The prevailing visibility was 7 miles.

The weather observed at NORFOLK NAS/CHAM, VA (KNGU) at 10:59 AM EDT was:
  The skies were mostly cloudy.
  Temperature: 89F ( 32C)  Dewpoint:  76F ( 24C)  Relative Humidity:  65%
  Winds from the SW (220 degs) at  8 mph.
  Pressure: 1013.6 millibars.  Altimeter:29.93 inches of mercury.
  The prevailing visibility was 7 miles.

The weather observed at NORFOLK NAS/CHAM, VA (KNGU) at 11:59 AM EDT was:
  The skies were mostly cloudy.
  Temperature: 91F ( 33C)  Dewpoint:  77F ( 25C)  Relative Humidity:  64%
  Winds from the SW (210 degs) at 10 mph.
  Pressure: 1013.5 millibars.  Altimeter:29.93 inches of mercury.
  The prevailing visibility was 7 miles.

The weather observed at NORFOLK NAS/CHAM, VA (KNGU) at 11:59 AM EDT was:
  The skies were mostly cloudy.
  Temperature: 91F ( 33C)  Dewpoint:  77F ( 25C)  Relative Humidity:  63%
  Winds from the SW (210 degs) at 10 mph.
  Pressure: 1013.5 millibars.  Altimeter:29.93 inches of mercury.
  The prevailing visibility was 7 miles.

The weather observed at NORFOLK NAS/CHAM, VA (KNGU) at 12:59 PM EDT was:
  The skies were mostly cloudy.
  Temperature: 94F ( 34C)  Dewpoint:  78F ( 26C)  Relative Humidity:  60%
  Winds from the SW (220 degs) at  9 mph.
  Pressure: 1013.0 millibars.  Altimeter:29.92 inches of mercury.
  The prevailing visibility was 7 miles.

The weather observed at NORFOLK NAS/CHAM, VA (KNGU) at 12:59 PM EDT was:
  The skies were mostly cloudy.
  Temperature: 93F ( 34C)  Dewpoint:  79F ( 26C)  Relative Humidity:  63%
  Winds from the SW (220 degs) at  9 mph.
  Pressure: 1013.0 millibars.  Altimeter:29.92 inches of mercury.
  The prevailing visibility was 7 miles.

The weather observed at NORFOLK NAS/CHAM, VA (KNGU) at 01:59 PM EDT was:
  The skies were mostly cloudy.
  Temperature: 94F ( 34C)  Dewpoint:  78F ( 26C)  Relative Humidity:  60%
  Winds from the SW (210 degs) at 15 mph.
  Pressure: 1012.7 millibars.  Altimeter:29.91 inches of mercury.
  The prevailing visibility was 7 miles.
  The maximum temperature in the past 6 hours was  95F.
  The minimum temperature in the past 6 hours was  81F.

The weather observed at NORFOLK NAS/CHAM, VA (KNGU) at 01:59 PM EDT was:
  The skies were mostly cloudy.
  Temperature: 94F ( 34C)  Dewpoint:  78F ( 26C)  Relative Humidity:  60%
  Winds from the SW (210 degs) at 15 mph.
  Pressure: 1012.7 millibars.  Altimeter:29.91 inches of mercury.
  The prevailing visibility was 7 miles.
  The maximum temperature in the past 6 hours was  95F.
  The minimum temperature in the past 6 hours was  81F.

The weather observed at NORFOLK NAS/CHAM, VA (KNGU) at 02:59 PM EDT was:
  The skies were mostly cloudy.
  Temperature: 95F ( 35C)  Dewpoint:  77F ( 25C)  Relative Humidity:  56%
  Winds from the SW (230 degs) at 15 mph.
  Pressure: 1012.2 millibars.  Altimeter:29.89 inches of mercury.
  The prevailing visibility was 7 miles.

The weather observed at NORFOLK NAS/CHAM, VA (KNGU) at 02:59 PM EDT was:
  The skies were mostly cloudy.
  Temperature: 95F ( 35C)  Dewpoint:  77F ( 25C)  Relative Humidity:  56%
  Winds from the SW (230 degs) at 15 mph.
  Pressure: 1012.2 millibars.  Altimeter:29.89 inches of mercury.
  The prevailing visibility was 7 miles.

The weather observed at NORFOLK NAS/CHAM, VA (KNGU) at 03:59 PM EDT was:
  The skies were partly cloudy.
  Temperature: 95F ( 35C)  Dewpoint:  76F ( 24C)  Relative Humidity:  54%
  Winds from the SW (210 degs) at 14 mph.
  Pressure: 1011.5 millibars.  Altimeter:29.87 inches of mercury.
  The prevailing visibility was 7 miles.

The weather observed at NORFOLK NAS/CHAM, VA (KNGU) at 03:59 PM EDT was:
  The skies were partly cloudy.
  Temperature: 95F ( 35C)  Dewpoint:  75F ( 24C)  Relative Humidity:  53%
  Winds from the SW (210 degs) at 14 mph.
  Pressure: 1011.5 millibars.  Altimeter:29.87 inches of mercury.
  The prevailing visibility was 7 miles.

Short Range Forecast

Sorry no data found for ngu
Make sure ngu is a valid station
You might need to specify a nearby major city
Try Again

Zone Forecast

VAZ095-170200-
Norfolk/Portsmouth-
Including the cities of Downtown Norfolk, Ghent,
Norfolk International Arpt, Norfolk NAS, Norview, Ocean View,
and Wards Corner
245 PM EDT Tue Jul 16 2024

...EXCESSIVE HEAT WARNING REMAINS IN EFFECT UNTIL 8 PM EDT THIS
EVENING...
...HEAT ADVISORY IN EFFECT FROM 11 AM TO 8 PM EDT WEDNESDAY...

.THIS AFTERNOON...Mostly sunny with a slight chance of showers
and thunderstorms. Highs in the upper 90s. Southwest winds 10 to
15 mph. Chance of rain 20 percent. Heat index values up to 110.
.TONIGHT...Partly cloudy. A slight chance of showers and
thunderstorms in the evening. Humid with lows around 80.
Southwest winds 10 to 15 mph. Chance of rain 20 percent. Heat
index values up to 107 early in the evening.
.WEDNESDAY...Partly sunny. A chance of showers and thunderstorms
in the afternoon. Hot with highs in the mid 90s. Southwest winds
10 to 15 mph with gusts up to 25 mph. Chance of rain 50 percent.
Heat index values up to 110.
.WEDNESDAY NIGHT...Showers and thunderstorms likely. Humid with
lows in the mid 70s. Southwest winds 10 to 15 mph. Chance of rain
60 percent. Heat index values up to 101 early in the evening.
.THURSDAY...Showers likely with a chance of thunderstorms in the
morning, then showers and thunderstorms likely in the afternoon.
Humid with highs in the upper 80s. Southwest winds around 10 mph
with gusts up to 20 mph, becoming northwest in the afternoon.
Chance of rain 70 percent.
.THURSDAY NIGHT...Thunderstorms likely. Showers likely. Lows in
the mid 70s. Chance of rain 70 percent.
.FRIDAY...Mostly cloudy with a chance of showers. A chance of
thunderstorms in the afternoon. Highs in the mid 80s. Chance of
rain 40 percent.
.FRIDAY NIGHT...A chance of thunderstorms in the evening. Mostly
cloudy with a chance of showers. Lows in the lower 70s. Chance of
rain 40 percent.
.SATURDAY...Mostly cloudy with a chance of showers. A chance of
thunderstorms in the afternoon. Highs in the mid 80s. Chance of
rain 50 percent.
.SATURDAY NIGHT...Mostly cloudy with a chance of showers and
thunderstorms. Lows in the mid 70s. Chance of rain 50 percent.
.SUNDAY...Mostly cloudy with a chance of showers. A chance of
thunderstorms in the afternoon. Highs in the upper 80s. Chance of
rain 50 percent.
.SUNDAY NIGHT...Mostly cloudy with a chance of showers and
thunderstorms. Lows in the mid 70s. Chance of rain 50 percent.
.MONDAY...Mostly cloudy with a chance of showers. A chance of
thunderstorms in the afternoon. Highs in the mid 80s. Chance of
rain 50 percent.


State Forecast

Sorry no data found for ngu
Make sure ngu is a valid station
You might need to specify a nearby major city
Try Again

State Forecast Discussion

Sorry no data found for ngu
Make sure ngu is a valid station
You might need to specify a nearby major city
Try Again

GFS Short-Range Model Output Statistics (MOS) Forecast

KNGU   GFS MOS GUIDANCE    7/16/2024  1200 UTC
DT /JULY 16/JULY 17                /JULY 18                /JULY 19
HR   18 21 00 03 06 09 12 15 18 21 00 03 06 09 12 15 18 21 00 06 12
N/X                    82          96          77          86    72
TMP  97 97 91 86 84 83 85 90 94 93 88 82 79 78 79 81 83 80 77 74 77
DPT  75 74 73 75 75 74 74 75 74 73 73 74 74 74 73 73 73 72 71 70 71
CLD  BK BK BK SC SC SC BK SC BK BK OV OV OV OV OV OV OV OV OV OV OV
WDR  23 22 20 21 22 21 22 23 22 21 22 24 22 24 25 29 03 05 07 28 02
WSP  09 11 09 10 09 08 09 10 11 12 11 11 09 07 06 06 07 06 05 03 07
P06         0     1     8    10    43    39    26    34    59 43 20
P12                     8          43          56          64    46
Q06         0     0     0     0     1     1     0     1     5  1  0
Q12                     0           1           1           5     1
T06     24/21 14/10  3/ 1 10/ 2 41/21 28/ 7 17/ 0 25/ 0 41/ 9 11/ 0
T12           26/21       10/ 3       53/22       33/ 2    43/ 9
CIG   8  8  8  8  8  8  8  8  8  8  8  7  8  4  4  4  6  6  5  6  7
VIS   7  7  7  7  7  7  7  7  7  7  7  7  7  7  7  7  7  7  5  5  7
OBV   N  N  N  N  N  N  N  N  N  N  N  N  N  N  N  N  N  N  N BR  N

GFS Long-Range Model Output Statistics (MOS) Forecast

KNGU   GFSX MOS GUIDANCE   7/16/2024  1200 UTC
FHR  24  36| 48  60| 72  84| 96 108|120 132|144 156|168 180|192
     WED 17| THU 18| FRI 19| SAT 20| SUN 21| MON 22| TUE 23|WED CLIMO
N/X  82  96| 77  86| 72  85| 73  86| 74  91| 75  88| 74  91| 75 71 87
TMP  85  88| 79  77| 77  79| 78  79| 79  83| 79  81| 79  83| 80
DPT  74  73| 73  71| 71  68| 72  70| 73  72| 72  70| 72  71| 72
CLD  PC  OV| OV  OV| OV  OV| OV  OV| OV  OV| OV  OV| OV  PC| PC
WND  10  12| 11   7|  7   9|  6   8|  5   8|  6   8|  6   9|  7
P12   8  43| 56  64| 46  26| 19  43| 29  41| 42  40| 35  33| 26999999
P24      43|     82|     52|     43|     55|     58|     56|       32
Q12   0   1|  1   5|  1   0|  0   1|  0   2|  3   4|       |
Q24       0|      5|      1|      0|      2|      4|       |
T12  14  41| 33  49| 25  20| 11  29| 24  42| 27  38| 24  34| 20
T24        | 55    | 49    | 21    | 38    | 54    | 42    | 34

NGM Model Output Statistics (MOS) Forecast

Climatological Summary

Sorry no data found for ngu
Make sure ngu is a valid station
You might need to specify a nearby major city
Try Again

Watch and Warning Statment

Sorry no data found for ngu
Make sure ngu is a valid station
You might need to specify a nearby major city
or it could be THERE ARE NO WATCHES OR WARNINGS for ngu
Try Again

Park/Ski Recreation Report/Forecast

Sorry no data found for ngu
Make sure ngu is a valid station
You might need to specify a nearby major city
Try Again